Location: Newark
(43.0000°N, 1.6781°W)
Time: 14:47:29
(UTC+00:00)

OBJECT D - Visible Passes

Search period start: 12 July 2024 00:00
Search period end: 22 July 2024 00:00
Orbit: 579 x 632 km, 98.1° (Epoch: 12 July)

Date Brightness Start Highest point End Pass type
(mag) Time Alt. Az. Time Alt. Az. Time Alt. Az.
12 Jul ? 21:24:49 12° E 21:26:33 15° ENE 21:28:57 10° NNE visible
12 Jul ? 23:01:40 51° WSW 23:01:54 51° W 23:06:01 10° NNW visible
13 Jul ? 21:37:48 17° E 21:39:14 20° ENE 21:42:17 10° NNE visible
13 Jul ? 23:14:40 37° WSW 23:14:45 37° W 23:18:41 10° NNW visible
14 Jul ? 21:50:47 23° E 21:51:55 26° ENE 21:55:26 10° N visible
14 Jul ? 23:27:39 27° W 23:27:39 27° W 23:31:14 10° NW visible
15 Jul ? 22:03:45 31° E 22:04:38 35° ENE 22:08:29 10° N visible
15 Jul ? 23:40:37 20° W 23:40:37 20° W 23:43:40 10° NW visible
16 Jul ? 22:16:44 44° E 22:17:22 48° ENE 22:21:27 10° N visible
16 Jul ? 23:53:36 15° W 23:53:36 15° W 23:55:52 10° NW visible
17 Jul ? 22:29:43 62° ESE 22:30:07 67° ENE 22:34:20 10° N visible
18 Jul ? 00:06:35 11° W 00:06:35 11° W 00:07:20 10° WNW visible
18 Jul ? 22:42:41 81° S 22:42:54 88° W 22:47:10 10° NNW visible
19 Jul ? 21:18:48 11° E 21:20:27 13° ENE 21:22:25 10° NNE visible
19 Jul ? 22:55:40 63° WSW 22:55:41 63° WSW 22:59:55 10° NNW visible
20 Jul ? 21:31:46 15° E 21:33:05 17° ENE 21:35:52 10° NNE visible
20 Jul ? 23:08:38 45° W 23:08:38 45° W 23:12:36 10° NNW visible
21 Jul ? 21:44:44 21° E 21:45:45 23° ENE 21:49:04 10° NNE visible
21 Jul ? 23:21:36 32° W 23:21:36 32° W 23:25:13 10° NNW visible
